When you browse on this site, cookies collect data to enhance your experience and personalize the content and advertising you see.
Visit our Privacy Policy to learn more. By continuing to use the site, you agree to this use of cookies and data.
  • In United Kingdom
  • List of Countries
  • For 7 days
  • Water Temperature
  • Satellite Maps
  • Weather Map
  • Weather Widgets
  • user-avatar
    Login

    Hourly Weather Porto Alegre

    Today, 17 January, Thursday

    Time Temperature Precipitation Wind Pressure Humidity
    00:00 +28°C° 0 mm 1 mps 756 mmHg 83%
    01:00 +27°C° 0 mm 1 mps 756 mmHg 84%
    02:00 +27°C° 0 mm 1 mps 756 mmHg 86%
    03:00 +27°C° 0 mm 1 mps 756 mmHg 87%
    04:00 +27°C° 0 mm 1 mps 756 mmHg 86%
    05:00 +27°C° 0 mm 1 mps 757 mmHg 86%
    06:00 +27°C° 0 mm 1 mps 757 mmHg 86%
    07:00 +27°C° 0.1 mm 1 mps 757 mmHg 84%
    08:00 +28°C° 0.1 mm 1 mps 757 mmHg 81%
    09:00 +29°C° 0 mm 1 mps 758 mmHg 77%
    10:00 +29°C° 1 mm 2 mps 758 mmHg 78%
    11:00 +29°C° 1 mm 2 mps 758 mmHg 78%
    12:00 +29°C° 1 mm 2 mps 758 mmHg 78%
    13:00 +29°C° 2.5 mm 3 mps 758 mmHg 80%
    14:00 +28°C° 2.5 mm 3 mps 758 mmHg 82%
    15:00 +28°C° 2.5 mm 3 mps 758 mmHg 84%
    16:00 +27°C° 1.1 mm 3 mps 758 mmHg 85%
    17:00 +26°C° 1.1 mm 3 mps 758 mmHg 87%
    18:00 +25°C° 1.1 mm 3 mps 758 mmHg 89%
    19:00 +25°C° 0.4 mm 3 mps 758 mmHg 89%
    20:00 +25°C° 0.4 mm 3 mps 758 mmHg 89%
    21:00 +24°C° 0.4 mm 3 mps 758 mmHg 89%
    22:00 +24°C° 0 mm 3 mps 758 mmHg 90%
    23:00 +24°C° 0 mm 3 mps 758 mmHg 90%

    Tomorrow, 18 January, Friday

    Time Temperature Precipitation Wind Pressure Humidity
    00:00 +24°C° 0 mm 3 mps 758 mmHg 91%
    01:00 +24°C° 0.2 mm 3 mps 758 mmHg 91%
    02:00 +24°C° 0.2 mm 2 mps 758 mmHg 92%
    03:00 +24°C° 0.2 mm 2 mps 758 mmHg 92%
    04:00 +24°C° 0.4 mm 2 mps 757 mmHg 93%
    05:00 +24°C° 0.4 mm 2 mps 757 mmHg 93%
    06:00 +24°C° 0.4 mm 3 mps 757 mmHg 93%
    07:00 +25°C° 0.5 mm 3 mps 757 mmHg 91%
    08:00 +26°C° 0.5 mm 3 mps 757 mmHg 88%
    09:00 +27°C° 0.5 mm 3 mps 756 mmHg 86%
    10:00 +28°C° 0.1 mm 2 mps 756 mmHg 80%
    11:00 +30°C° 0.1 mm 2 mps 756 mmHg 73%
    12:00 +31°C° 0.1 mm 2 mps 755 mmHg 67%
    13:00 +30°C° 2.2 mm 2 mps 755 mmHg 73%
    14:00 +29°C° 2.2 mm 2 mps 755 mmHg 80%
    15:00 +28°C° 2.2 mm 2 mps 754 mmHg 86%
    16:00 +28°C° 1.4 mm 2 mps 754 mmHg 84%
    17:00 +29°C° 1.4 mm 1 mps 754 mmHg 83%
    18:00 +30°C° 1.4 mm 1 mps 754 mmHg 81%
    19:00 +29°C° 1.3 mm 2 mps 754 mmHg 84%
    20:00 +28°C° 1.3 mm 2 mps 754 mmHg 87%
    21:00 +27°C° 1.3 mm 3 mps 755 mmHg 91%
    22:00 +26°C° 0.5 mm 3 mps 755 mmHg 91%
    23:00 +25°C° 0.5 mm 4 mps 755 mmHg 91%

    Day after tomorrow, 19 January, Saturday

    Time Temperature Precipitation Wind Pressure Humidity
    00:00 +25°C° 0.5 mm 5 mps 756 mmHg 92%
    01:00 +23°C° 0.9 mm 5 mps 756 mmHg 91%
    02:00 +22°C° 0.9 mm 5 mps 756 mmHg 90%
    03:00 +22°C° 0.9 mm 5 mps 756 mmHg 90%
    04:00 +22°C° 0.4 mm 5 mps 756 mmHg 89%
    05:00 +22°C° 0.4 mm 4 mps 757 mmHg 89%
    06:00 +21°C° 0.4 mm 4 mps 757 mmHg 89%
    07:00 +22°C° 0.1 mm 4 mps 758 mmHg 87%
    08:00 +22°C° 0.1 mm 4 mps 758 mmHg 85%
    09:00 +23°C° 0.1 mm 5 mps 759 mmHg 83%
    10:00 +23°C° 0.1 mm 5 mps 759 mmHg 80%
    11:00 +25°C° 0.1 mm 5 mps 760 mmHg 78%
    12:00 +25°C° 0.1 mm 4 mps 760 mmHg 75%
    13:00 +25°C° 0.4 mm 4 mps 760 mmHg 78%
    14:00 +25°C° 0.4 mm 4 mps 759 mmHg 80%
    15:00 +23°C° 0.4 mm 4 mps 759 mmHg 82%
    16:00 +23°C° 0.3 mm 4 mps 759 mmHg 84%
    17:00 +23°C° 0.3 mm 4 mps 759 mmHg 85%
    18:00 +22°C° 0.3 mm 4 mps 759 mmHg 86%
    19:00 +22°C° 0.2 mm 4 mps 759 mmHg 86%
    20:00 +22°C° 0.2 mm 4 mps 760 mmHg 87%
    21:00 +22°C° 0.2 mm 4 mps 760 mmHg 87%
    22:00 +22°C° 0.1 mm 4 mps 760 mmHg 87%
    23:00 +22°C° 0.1 mm 4 mps 760 mmHg 86%

    20 January, Sunday

    Time Temperature Precipitation Wind Pressure Humidity
    00:00 +22°C° 0.1 mm 4 mps 760 mmHg 85%
    01:00 +22°C° 0 mm 4 mps 760 mmHg 85%
    02:00 +22°C° 0 mm 4 mps 759 mmHg 85%
    03:00 +22°C° 0 mm 3 mps 759 mmHg 85%
    04:00 +22°C° 0 mm 3 mps 759 mmHg 85%
    05:00 +22°C° 0 mm 3 mps 759 mmHg 85%
    06:00 +22°C° 0 mm 3 mps 759 mmHg 86%
    07:00 +22°C° 0.1 mm 4 mps 759 mmHg 82%
    08:00 +23°C° 0.1 mm 4 mps 759 mmHg 79%
    09:00 +25°C° 0.1 mm 4 mps 760 mmHg 75%
    10:00 +25°C° 0.3 mm 4 mps 759 mmHg 79%
    11:00 +23°C° 0.3 mm 4 mps 759 mmHg 82%
    12:00 +24°C° 0.3 mm 3 mps 759 mmHg 86%
    13:00 +23°C° 0.1 mm 4 mps 759 mmHg 84%
    14:00 +25°C° 0.1 mm 4 mps 758 mmHg 82%
    15:00 +25°C° 0.1 mm 4 mps 757 mmHg 81%
    16:00 +25°C° 0.1 mm 4 mps 757 mmHg 80%
    17:00 +25°C° 0.1 mm 4 mps 757 mmHg 80%
    18:00 +26°C° 0.1 mm 5 mps 757 mmHg 79%
    19:00 +25°C° 0.1 mm 4 mps 757 mmHg 82%
    20:00 +25°C° 0.1 mm 4 mps 757 mmHg 84%
    21:00 +23°C° 0.1 mm 4 mps 757 mmHg 87%
    22:00 +23°C° 0.1 mm 4 mps 757 mmHg 87%
    23:00 +24°C° 0.1 mm 3 mps 757 mmHg 88%

    21 January, Monday

    Time Temperature Precipitation Wind Pressure Humidity
    00:00 +24°C° 0.1 mm 3 mps 757 mmHg 89%
    01:00 +24°C° 0 mm 3 mps 756 mmHg 90%
    02:00 +24°C° 0 mm 2 mps 756 mmHg 91%
    03:00 +23°C° 0 mm 2 mps 755 mmHg 92%
    04:00 +23°C° 0 mm 2 mps 755 mmHg 92%
    05:00 +23°C° 0 mm 2 mps 755 mmHg 93%
    06:00 +23°C° 0 mm 1 mps 755 mmHg 93%
    07:00 +25°C° 0.7 mm 1 mps 755 mmHg 87%
    08:00 +26°C° 0.7 mm 1 mps 755 mmHg 82%
    09:00 +28°C° 0.7 mm 1 mps 756 mmHg 76%
    10:00 +30°C° 1.1 mm 1 mps 755 mmHg 70%
    11:00 +31°C° 1.1 mm 2 mps 755 mmHg 65%
    12:00 +34°C° 1.1 mm 2 mps 755 mmHg 59%
    13:00 +34°C° 1.8 mm 2 mps 754 mmHg 60%
    14:00 +33°C° 1.8 mm 1 mps 754 mmHg 62%
    15:00 +33°C° 1.8 mm 1 mps 753 mmHg 63%
    16:00 +33°C° 0.3 mm 1 mps 753 mmHg 63%
    17:00 +33°C° 0.3 mm 1 mps 753 mmHg 62%
    18:00 +33°C° 0.3 mm 1 mps 753 mmHg 62%
    19:00 +31°C° 0 mm 1 mps 753 mmHg 68%
    20:00 +30°C° 0 mm 1 mps 754 mmHg 74%
    21:00 +26°C° 0 mm 0 mps 754 mmHg 80%
    22:00 +25°C° 0 mm 0 mps 754 mmHg 82%
    23:00 +25°C° 0 mm 0 mps 755 mmHg 85%

    22 January, Tuesday

    Time Temperature Precipitation Wind Pressure Humidity
    00:00 +24°C° 0 mm 0 mps 755 mmHg 87%
    01:00 +24°C° 0 mm 0 mps 754 mmHg 88%
    02:00 +26°C° 0 mm 1 mps 754 mmHg 90%
    03:00 +25°C° 0 mm 1 mps 754 mmHg 91%
    04:00 +25°C° 0 mm 1 mps 754 mmHg 92%
    05:00 +25°C° 0 mm 1 mps 754 mmHg 93%
    06:00 +25°C° 0 mm 1 mps 755 mmHg 94%
    07:00 +27°C° 0 mm 1 mps 755 mmHg 86%
    08:00 +28°C° 0 mm 1 mps 755 mmHg 78%
    09:00 +30°C° 0 mm 1 mps 756 mmHg 71%
    10:00 +32°C° 0 mm 1 mps 756 mmHg 62%
    11:00 +34°C° 0 mm 1 mps 755 mmHg 54%
    12:00 +36°C° 0 mm 2 mps 755 mmHg 46%
    13:00 +37°C° 0 mm 2 mps 755 mmHg 44%
    14:00 +37°C° 0 mm 2 mps 754 mmHg 42%
    15:00 +38°C° 0 mm 2 mps 754 mmHg 40%
    16:00 +37°C° 0 mm 2 mps 754 mmHg 45%
    17:00 +35°C° 0 mm 3 mps 754 mmHg 51%
    18:00 +34°C° 0 mm 3 mps 754 mmHg 57%
    19:00 +33°C° 0 mm 3 mps 754 mmHg 64%
    20:00 +30°C° 0 mm 3 mps 755 mmHg 71%
    21:00 +28°C° 0 mm 2 mps 755 mmHg 78%
    22:00 +28°C° 0 mm 2 mps 755 mmHg 79%
    23:00 +27°C° 0 mm 1 mps 756 mmHg 81%
    Show more